Regional Weather Roundup
Issued by NWS

Home | Current Version | Previous Version | Graphics & Text | Print | Product List | Glossary On
Versions: 1 2 3 4 5 6 7 8 9 10 11 12 13 14 15 16 17 18 19 20 21 22 23 24 25 26 27 28 29 30 31 32 33 34 35 36 37 38 39 40 41 42 43 44 45 46 47 48 49 50
000
ASUS43 KBIS 201610
RWRND

NORTH DAKOTA REGIONAL WEATHER ROUNDUP
NATIONAL WEATHER SERVICE BISMARCK ND
1100 AM CDT MON OCT 20 2014

NOTE: "FAIR" INDICATES FEW OR NO CLOUDS BELOW 12,000 FEET WITH NO
SIGNIFICANT WEATHER AND/OR OBSTRUCTIONS TO VISIBILITY.


NDZ001>003-009>011-017-201700-
NORTHWEST NORTH DAKOTA

CITY           SKY/WX    TMP DP  RH WIND       PRES   REMARKS
WILLISTON      SUNNY     57  40  52 S6        29.95F
MINOT          SUNNY     59  40  49 SE7       30.00F
MINOT AFB      SUNNY     55  43  64 SE7       30.00S
$$

NDZ018>021-031>035-040>046-201700-
SOUTHWEST NORTH DAKOTA

CITY           SKY/WX    TMP DP  RH WIND       PRES   REMARKS
BISMARCK       SUNNY     50  40  68 SE3       30.07F
DICKINSON      SUNNY     59  41  51 S18       29.98F
GARRISON         N/A     54  41  61 S6        30.02F
HETTINGER ARPT SUNNY     58  39  49 SE14      30.03F
$$

NDZ004>008-012>016-024-026-027-054-201700-
NORTHEAST NORTH DAKOTA

CITY           SKY/WX    TMP DP  RH WIND       PRES   REMARKS
GRAND FORKS    SUNNY     48  41  76 N5        30.09R
GRND FRKS AFB  SUNNY     48  44  85 NE5       30.09R
DEVILS LAKE    SUNNY     50  39  66 SE7       30.06S
$$

NDZ022-023-025-028>030-036>039-047>053-201700-
SOUTHEAST NORTH DAKOTA

CITY           SKY/WX    TMP DP  RH WIND       PRES   REMARKS
FARGO          SUNNY     51  41  68 N5        30.07S
JAMESTOWN      SUNNY     51  39  63 CALM      30.07S
$$




USA.gov is the U.S. government's official web portal to all federal, state and local government web resources and services.